Terug naar catalogus

GSAT 12

ActiefCommunicatieGEO
NORAD 37746·PAYLOAD·🇮🇳 India

Gelanceerd Jul 15, 2011 vanaf Satish Dhawan Space Centre

Loading…

TLE

VersSource: Space-Track

Epoch: Sep 14, 2026, 14:00 UTC

1 37746U 11034A   26257.58350772  .00000019  00000-0  00000-0 0  9995
2 37746   5.5269  74.8721 0006376 164.1403   6.8070  0.98859481 44210

Volg GSAT 12 in realtime met AllMySat

Download on the App Store